sat.trackr.live / text

‹ back to catalog

STARLINK-4141

NORAD 53138 · 2022-083G

PAYLOAD ACTIVE UNKNOWN

§ Identity

Operator
Country
US
Launch date
2022-07-17
Launch site
AFETR
Launch vehicle
Mass (kg)
RCS (m²)

Purposes: comms

External: N2YO · Heavens-Above · Gunter

§ Orbital elements

Epoch: 2026-05-24T20:17:49.259328Z

Period
95.44 min
Inclination
53.2142°
Eccentricity
0.0001011
Mean motion
15.08840233 rev/d
Perigee alt
539.0 km
Apogee alt
540.4 km
Semi-major
6,917.9 km
B*
2.1279e-5
RAAN
187.4241°
Arg perigee
81.5489°
Mean anomaly
278.5617°
Rev number
21,355

§ Raw data

STARLINK-41411 53138U 22083G   26144.84570902  .00000051  00000+0  21279-4 0  99972 53138  53.2142 187.4241 0001011  81.5489 278.5617 15.08840233213550

JSON: /api/v1/satellites/53138 · /tle

For live sub-satellite position, see the globe view (requires WebGL).

§ Visibility from observer

Set your observer location to see the next 7 days of passes ≥ 10°. The values pass through the URL so the page stays shareable.

No JS? Fill the form by hand. The geolocation button needs JavaScript.